Regional Weather Roundup
Issued by NWS Goodland, KS

Home | Current Version | Previous Version | Graphics & Text | Print | Product List | Glossary On
Versions: 1 2 3 4 5 6 7 8 9 10 11 12 13 14 15 16 17 18 19 20 21 22 23 24 25 26 27 28 29 30 31 32 33 34 35 36 37 38 39 40 41 42 43 44 45 46 47 48 49 50
000
ASUS43 KGLD 272159
RWRGLD

GOODLAND FORECAST AREA HOURLY WEATHER ROUNDUP
NATIONAL WEATHER SERVICE GOODLAND KS
300 PM MST FRI FEB 27 2015

...OFFICIAL OBSERVATIONS...

CITY           SKY/WX    TMP DP  RH WIND       PRES   REMARKS
GOODLAND KS    FLURRIES  16   9  74 S23       30.17S WCI  -2
HILL CITY KS   CLOUDY    20   3  48 SE13      30.36F WCI   7
IMPERIAL NEB     N/A     20   7  57 S20       30.18F WCI   4
MCCOOK NEB     CLOUDY    23   5  46 SE14      30.28F WCI  11
AKRON CO       LGT SNOW  14   8  77 S21       30.01F WCI  -4
BURLINGTON CO  CLOUDY    14   6  70 S25       30.10F HAZE    WCI  -5
LIMON CO       LGT SNOW   9   5  84 SE23G29   29.96F FOG     WCI -11
$$

...UNOFFICIAL OBSERVATIONS...

CITY           SKY/WX    TMP DP  RH WIND       PRES   REMARKS
COLBY KS       CLOUDY    18  12  79 SE18      30.25S HAZE    WCI   2
GOVE KS          N/A     18  32 100 MISG        N/A
LENORA KS        N/A     19  32 100 S15         N/A  WCI   5
NORTON KS      CLOUDY    21  -2  35 SE9       30.32S
SHARON SPRINGS   N/A     15  10  80 SE20G29     N/A  WCI  -2
KIT CARSON CO    N/A     12   8  83 MISG        N/A
YUMA CO          N/A     17   7  64 S10G25      N/A  WCI   5
$$


USA.gov is the U.S. government's official web portal to all federal, state and local government web resources and services.